Hourly Data Report for August 13, 2013

All times are specified in Local Standard Time (LST). Add 1 hour to adjust for Daylight Saving Time where and when it is observed.

VICTORIA INTL A
BRITISH COLUMBIA

48°38'50.000" N
123°25'33.000" W
19.50 m
1018621
71799
YYJ

Download Data

Hourly Data (August 2013)
Hourly Data Report for August 13, 2013
Temp Definition
°C
Dew Point Temp Definition
°C
Rel Hum Definition
%
Wind Dir Definition
10's deg

Wind Spd Definition
km/h
Visibility Definition
km
Stn Press Definition
kPa
Hmdx Definition


Wind Chill Definition


Weather Definition


TIME
00:00 Legend Double Dagger 13.8 11.7 87 8 8 48.3 101.55     LegendNANA
01:00 Legend Double Dagger 13.2 11.4 89 21 3 48.3 101.56     Clear
02:00 Legend Double Dagger 12.9 11.3 90 13 3 48.3 101.59     LegendNANA
03:00 Legend Double Dagger 12.3 11.4 94 7 4 48.3 101.61     LegendNANA
04:00 Legend Double Dagger 12.5 11.3 92 9 5 48.3 101.62     Mostly Cloudy
05:00 Legend Double Dagger 12.7 11.5 92 10 5 48.3 101.63     LegendNANA
06:00 Legend Double Dagger 12.7 11.5 92 10 10 48.3 101.67     LegendNANA
07:00 Legend Double Dagger 12.8 11.6 92 12 9 48.3 101.68     Cloudy
08:00 Legend Double Dagger 14.1 11.8 86 10 10 32.2 101.70     LegendNANA
09:00 Legend Double Dagger 14.7 11.7 82 10 11 32.2 101.72     LegendNANA
10:00 Legend Double Dagger 17.3 11.8 70 8 13 32.2 101.71     Mainly Clear
11:00 Legend Double Dagger 18.6 11.7 64 11 10 32.2 101.69     LegendNANA
12:00 Legend Double Dagger 18.5 11.9 65 11 10 32.2 101.67     LegendNANA
13:00 Legend Double Dagger 20.5 12.1 58 10 10 32.2 101.63     Mainly Clear
14:00 Legend Double Dagger 20.2 11.8 58 12 14 32.2 101.57     LegendNANA
15:00 Legend Double Dagger 21.2 11.9 55 11 13 32.2 101.50     LegendNANA
16:00 Legend Double Dagger 21.2 11.9 55 12 13 32.2 101.42     Mainly Clear
17:00 Legend Double Dagger 20.4 12.0 58 12 13 32.2 101.40     LegendNANA
18:00 Legend Double Dagger 20.0 12.1 60 13 10 48.3 101.30     LegendNANA
19:00 Legend Double Dagger 18.1 12.0 67 13 10 48.3 101.27     Mostly Cloudy
20:00 Legend Double Dagger 15.6 11.6 77 10 5 48.3 101.24     LegendNANA
21:00 Legend Double Dagger 14.5 11.7 83 14 6 48.3 101.20     LegendNANA
22:00 Legend Double Dagger 13.9 11.3 84 15 5 48.3 101.20     Mostly Cloudy
23:00 Legend Double Dagger 13.1 11.4 89 25 7 48.3 101.20     LegendNANA

Notes on Data Quality.

Legend

  • E = Estimated
  • M = Missing
  • NA = Not Available
  • ‡ = Partner data that is not subject to review by the National Climate Archives
Date modified: